Location: Béaulencourt
(50.0796°N, 2.8795°E)
Time: 04:47:50
(UTC+00:00)

ARIANE 6 FM1 Upper Stage - Pass Details

Date: 19 March 2026
Orbit: 525 x 604 km, 62.0° (Epoch: 17 April)

Event Time Altitude Azimuth Distance (km) Brightness Sun altitude
Exits shadow 04:22:00 20° 295° (WNW) 1,291 4.1 -15.3°
Maximum altitude 04:23:42 26° 333° (NNW) 1,075 4.0 -15.1°
Drops below altitude 10° 04:27:07 10° 32° (NNE) 1,784 6.0 -14.5°
Sets 04:29:34 0° 45° (NE) 2,670 7.3 -14.2°
